Terug naar catalogus

STARLINK-34688

ActiefCommunicatieVLEO
NORAD 65875·PAYLOAD·🇺🇸 United States

Gelanceerd Oct 3, 2025 vanaf Vandenberg Space Force Base

Loading…

Volgende Passages (komende 24 uur)

TLE

VersSource: CelesTrak SupGP

Epoch: Sep 15, 2026, 03:24 UTC

1 65875C 25223X   26258.14215278  .00035803  00000+0  10578-2 0  2587
2 65875  53.1559 130.6160 0001268  89.1326 213.2225 15.34373412    15

Volg STARLINK-34688 in realtime met AllMySat

Download on the App Store